Weather History for Prairie Du Chien, WI

Change the Weather History Date:

Sunday, February 3, 2013

  Actual Average Record
Temperature  
Mean Temperature 16 °F -  
Max Temperature 19 °F 28 °F 52 °F (1992)
Min Temperature 12 °F 9 °F -20 °F (1963)
Degree Days  
Heating Degree Days 50    
Moisture  
Dew Point 9 °F    
Average Humidity 77    
Maximum Humidity 93    
Minimum Humidity 58    
Precipitation  
Precipitation 0.00 in - - ()
Sea Level Pressure  
Sea Level Pressure 30.01 in    
Wind  
Wind Speed 5 mph (WNW)    
Max Wind Speed 17 mph    
Max Gust Speed 24 mph    
Visibility 7 miles    
Events Snow    
Averages and records for this station are not official NWS values.
T = Trace of Precipitation, MM = Missing Value Source: NWS Daily Summary

Daily Weather History Graph

Daily Weather History Graph

Search for Another Location

Airport:

Trip Planner

Search our weather history database for the weather conditions in past years. The results will help you decide how hot, cold, wet, or windy it might be!

Date:

Astronomy

Feb. 03, 2013 Rise Set
Actual Time 7:17 AM CST 5:20 PM CST
Civil Twilight 6:47 AM CST 5:50 PM CST
Nautical Twilight 6:13 AM CST 6:24 PM CST
Astronomical Twilight 5:40 AM CST 6:57 PM CST
Moon 12:45 AM CST (2/3) 10:56 AM CST (2/3)
Length of Visible Light 11h 03m
Length of Day
10h 03m
Waning Gibbous, 48% of the Moon is Illuminated
Feb 3
Waning Gibbous
Feb 10
New
Feb 17
First Quarter
Feb 25
Full
Mar 4
Last Quarter

Hourly Weather History & Observations

Time (CST) Temp. Windchill Dew Point Humidity Pressure Visibility Wind Dir Wind Speed Gust Speed Precip Events Conditions
12:15 AM 12.2 °F 6.1 °F 8.6 °F 85% 29.99 in 4.0 mi East 3.5 mph - N/A Snow Light Snow
12:35 AM 12.2 °F 6.1 °F 8.6 °F 85% 29.98 in 7.0 mi ESE 3.5 mph - N/A   Overcast
12:55 AM 12.2 °F 6.1 °F 8.6 °F 85% 29.98 in 5.0 mi East 3.5 mph - N/A   Overcast
1:15 AM 12.2 °F - 8.6 °F 85% 29.97 in 10.0 mi Calm Calm - N/A   Overcast
1:35 AM 12.2 °F - 8.6 °F 85% 29.97 in 7.0 mi Calm Calm - N/A   Overcast
1:55 AM 12.2 °F - 8.6 °F 85% 29.96 in 10.0 mi Calm Calm - N/A   Overcast
2:15 AM 12.2 °F - 8.6 °F 85% 29.97 in 10.0 mi Calm Calm - N/A   Overcast
2:35 AM 12.2 °F - 8.6 °F 85% 29.96 in 7.0 mi Calm Calm - N/A   Overcast
2:55 AM 12.2 °F - 8.6 °F 85% 29.96 in 5.0 mi Calm Calm - N/A   Overcast
3:15 AM 12.2 °F - 10.4 °F 92% 29.96 in 4.0 mi Calm Calm - N/A   Overcast
3:35 AM 12.2 °F - 10.4 °F 92% 29.95 in 5.0 mi Calm Calm - N/A   Overcast
3:55 AM 12.2 °F - 10.4 °F 92% 29.96 in 5.0 mi Calm Calm - N/A Snow Light Snow
4:15 AM 12.2 °F - 10.4 °F 92% 29.97 in 5.0 mi Calm Calm - N/A Snow Light Snow
4:35 AM 12.2 °F - 10.4 °F 92% 29.98 in 5.0 mi Calm Calm - N/A   Overcast
4:55 AM 12.2 °F - 10.4 °F 92% 29.98 in 2.5 mi Calm Calm - N/A Snow Light Snow
5:15 AM 12.2 °F - 10.4 °F 92% 29.98 in 2.0 mi Calm Calm - N/A Snow Light Snow
5:35 AM 14.0 °F - 10.4 °F 86% 29.99 in 3.0 mi Calm Calm - N/A Snow Light Snow
5:55 AM 14.0 °F - 12.2 °F 93% 29.98 in 4.0 mi Calm Calm - N/A Snow Light Snow
6:15 AM 15.8 °F 5.1 °F 12.2 °F 86% 29.98 in 4.0 mi WNW 8.1 mph - N/A Snow Light Snow
6:35 AM 15.8 °F 0.3 °F 10.4 °F 79% 30.00 in 10.0 mi WNW 16.1 mph - N/A   Overcast
6:55 AM 15.8 °F -0.2 °F 8.6 °F 73% 30.01 in 10.0 mi WNW 17.3 mph 23.0 mph N/A   Overcast
7:15 AM 14.0 °F -2.0 °F 6.8 °F 73% 30.03 in 10.0 mi NW 16.1 mph 24.2 mph N/A   Overcast
7:35 AM 14.0 °F -2.0 °F 5.0 °F 67% 30.04 in 10.0 mi WNW 16.1 mph - N/A   Scattered Clouds
7:55 AM 12.2 °F -3.1 °F 5.0 °F 73% 30.04 in 10.0 mi WNW 13.8 mph - N/A   Clear
8:15 AM 12.2 °F -1.0 °F 5.0 °F 73% 30.04 in 10.0 mi WNW 10.4 mph - N/A   Clear
8:35 AM 12.2 °F 0.7 °F 5.0 °F 73% 30.06 in 10.0 mi WNW 8.1 mph - N/A   Scattered Clouds
8:55 AM 12.2 °F 0.7 °F 5.0 °F 73% 30.06 in 10.0 mi NW 8.1 mph - N/A   Scattered Clouds
9:15 AM 12.2 °F -3.7 °F 5.0 °F 73% 30.05 in 10.0 mi WNW 15.0 mph 19.6 mph N/A   Scattered Clouds
9:35 AM 14.0 °F -0.2 °F 5.0 °F 67% 30.05 in 10.0 mi NW 12.7 mph 23.0 mph N/A   Clear
9:55 AM 14.0 °F 0.5 °F 5.0 °F 67% 30.06 in 10.0 mi WNW 11.5 mph - N/A   Clear
10:15 AM 14.0 °F 0.5 °F 5.0 °F 67% 30.07 in 10.0 mi NW 11.5 mph - N/A   Clear
10:35 AM 14.0 °F 2.9 °F 5.0 °F 67% 30.06 in 10.0 mi WNW 8.1 mph - N/A   Clear
10:55 AM 15.8 °F 4.2 °F 5.0 °F 62% 30.07 in 10.0 mi West 9.2 mph - N/A   Clear
11:15 AM 15.8 °F 2.7 °F 5.0 °F 62% 30.07 in 10.0 mi West 11.5 mph - N/A   Clear
11:35 AM 15.8 °F 6.1 °F 5.0 °F 62% 30.07 in 10.0 mi West 6.9 mph - N/A   Clear
11:55 AM 15.8 °F 4.2 °F 5.0 °F 62% 30.06 in 10.0 mi WSW 9.2 mph - N/A   Clear
12:15 PM 15.8 °F 3.4 °F 5.0 °F 62% 30.07 in 10.0 mi West 10.4 mph - N/A   Clear
12:35 PM 17.6 °F 7.3 °F 6.8 °F 63% 30.07 in 10.0 mi WSW 8.1 mph - N/A   Clear
12:55 PM 17.6 °F 5.0 °F 6.8 °F 63% 30.07 in 10.0 mi West 11.5 mph 16.1 mph N/A   Mostly Cloudy
1:15 PM 17.6 °F 6.4 °F 6.8 °F 63% 30.06 in 10.0 mi WSW 9.2 mph - N/A   Overcast
1:35 PM 17.6 °F 5.7 °F 6.8 °F 63% 30.06 in 10.0 mi West 10.4 mph 16.1 mph N/A   Overcast
1:55 PM 17.6 °F 3.7 °F 6.8 °F 63% 30.05 in 10.0 mi West 13.8 mph - N/A   Overcast
2:15 PM 17.6 °F 7.3 °F 6.8 °F 63% 30.04 in 10.0 mi West 8.1 mph - N/A   Overcast
2:55 PM 19.4 °F 6.6 °F 6.8 °F 58% 30.03 in 10.0 mi West 12.7 mph 18.4 mph N/A   Overcast
3:15 PM 19.4 °F 7.9 °F 8.6 °F 63% 30.03 in 10.0 mi WSW 10.4 mph - N/A   Overcast
3:35 PM 19.4 °F 6.6 °F 8.6 °F 63% 30.03 in 10.0 mi West 12.7 mph - N/A   Overcast
3:55 PM 19.4 °F 8.6 °F 8.6 °F 63% 30.03 in 10.0 mi West 9.2 mph - N/A   Overcast
4:15 PM 19.4 °F 7.2 °F 8.6 °F 63% 30.02 in 10.0 mi West 11.5 mph - N/A   Overcast
4:35 PM 19.4 °F 8.6 °F 8.6 °F 63% 30.01 in 10.0 mi West 9.2 mph - N/A   Overcast
4:55 PM 19.4 °F 8.6 °F 8.6 °F 63% 30.01 in 10.0 mi West 9.2 mph - N/A   Overcast
5:15 PM 19.4 °F 11.5 °F 10.4 °F 68% 30.01 in 10.0 mi West 5.8 mph - N/A   Overcast
5:35 PM 19.4 °F 12.8 °F 10.4 °F 68% 30.01 in 10.0 mi West 4.6 mph - N/A   Overcast
5:55 PM 19.4 °F 12.8 °F 10.4 °F 68% 30.01 in 10.0 mi West 4.6 mph - N/A   Overcast
6:15 PM 19.4 °F - 10.4 °F 68% 30.01 in 10.0 mi Calm Calm - N/A   Overcast
6:35 PM 19.4 °F 14.3 °F 10.4 °F 68% 30.01 in 10.0 mi SW 3.5 mph - N/A   Overcast
6:55 PM 19.4 °F - 10.4 °F 68% 30.01 in 10.0 mi Calm Calm - N/A   Overcast
7:15 PM 19.4 °F - 10.4 °F 68% 30.01 in 10.0 mi Calm Calm - N/A   Overcast
7:35 PM 19.4 °F - 12.2 °F 74% 30.01 in 5.0 mi Calm Calm - N/A   Overcast
7:55 PM 17.6 °F - 14.0 °F 86% 30.01 in 2.0 mi Calm Calm - N/A Snow Light Snow
8:15 PM 17.6 °F - 14.0 °F 86% 30.01 in 1.5 mi Calm Calm - N/A Snow Light Snow
8:35 PM 17.6 °F - 15.8 °F 93% 30.01 in 1.5 mi Calm Calm - N/A Snow Light Snow
8:55 PM 17.6 °F 12.3 °F 15.8 °F 93% 30.01 in 1.8 mi East 3.5 mph - N/A Snow Light Snow
9:15 PM 17.6 °F 12.3 °F 15.8 °F 93% 30.01 in 2.5 mi East 3.5 mph - N/A Snow Light Snow
9:35 PM 17.6 °F 10.7 °F 15.8 °F 93% 30.00 in 2.0 mi East 4.6 mph - N/A Snow Light Snow
9:55 PM 17.6 °F 10.7 °F 15.8 °F 93% 29.99 in 1.8 mi East 4.6 mph - N/A Snow Light Snow
10:15 PM 17.6 °F 10.7 °F 15.8 °F 93% 29.98 in 1.5 mi East 4.6 mph - N/A Snow Light Snow
10:35 PM 17.6 °F 12.3 °F 15.8 °F 93% 29.97 in 2.0 mi East 3.5 mph - N/A Snow Light Snow
10:55 PM 17.6 °F 10.7 °F 15.8 °F 93% 29.96 in 1.8 mi East 4.6 mph - N/A Snow Light Snow
11:15 PM 17.6 °F 10.7 °F 15.8 °F 93% 29.96 in 1.2 mi East 4.6 mph - N/A Snow Light Snow
11:35 PM 17.6 °F 10.7 °F 15.8 °F 93% 29.95 in 1.2 mi East 4.6 mph - N/A Snow Light Snow
11:55 PM 17.6 °F 8.2 °F 15.8 °F 93% 29.93 in 1.2 mi East 6.9 mph - N/A Snow Light Snow